User: anonymous   Login
Location: Unspecified
(0.0000°N, 0.0000°E)
Time: 14:41:14
(UTC+00:00)
Language:

DRAGON C1 - Orbit

View from above orbital plane
View from above orbital plane
View from above satellite
View from above satellite

Ground track
Ground track

The orbit data is extracted from the following two-line orbital elements,

1 37244U 10066A   10342.71096397 -.00000224  70651-6  00000+0 0    34
2 37244 034.5496 180.3527 0019218 263.8535 095.8793 15.93079179    15
Epoch (UTC): 08 December 2010 17:03:47
Eccentricity: 0.0019218
inclination: 34.5496°
perigee height: 281 km
apogee height: 306 km
right ascension of ascending node: 180.3527°
argument of perigee: 263.8535°
revolutions per day: 15.93079179
mean anomaly at epoch: 95.8793°
orbit number at epoch: 1

The dashed part of the orbit path shows where the satellite is in the earth's shadow,  

DLR